Regional Weather Roundup
Issued by NWS

Home | Current Version | Previous Version | Text Only | Print | Product List | Glossary Off
Versions: 1 2 3 4 5 6 7 8 9 10 11 12 13 14 15 16 17 18 19 20 21 22 23 24 25 26 27 28 29 30 31 32 33 34 35 36 37 38 39 40 41 42 43 44 45 46 47 48 49 50

000
ASUS43 KLOT 291303
RWRIL

ILLINOIS REGIONAL WEATHER ROUNDUP
NATIONAL WEATHER SERVICE CHICAGO/ROMEOVILLE IL
800 AM CDT THU SEP 29 2016

NOTE: "FAIR" INDICATES FEW OR NO CLOUDS BELOW 12,000 FEET WITH NO
SIGNIFICANT WEATHER AND/OR OBSTRUCTIONS TO VISIBILITY.

* THESE STATIONS ARE NOT UNDER NWS QUALITY CONTROL. THEY ALSO MAY NOT
  REPORT WEATHER SUCH AS PRECIPITATION OR FOG.

ILZ001-002-007-009-015-016-024-291400-
NORTHWEST ILLINOIS

CITY           SKY/WX    TMP DP  RH WIND       PRES   REMARKS
MOLINE         CLOUDY    55  50  83 N8G17     30.25R
STERLING*      CLOUDY    56  52  86 N8        30.23
$$

ILZ003-004-008-010-011-017-018-291400-
NORTH CENTRAL ILLINOIS

CITY           SKY/WX    TMP DP  RH WIND       PRES   REMARKS
ROCKFORD       CLOUDY    58  52  80 N16G28    30.24R
FREEPORT*      CLOUDY    54  51  89 N10       30.26R
ROCHELLE*      CLOUDY    58  53  85 N17G23    30.21R
$$

ILZ005-006-012>014-019>023-291400-
NORTHEAST ILLINOIS

CITY           SKY/WX    TMP DP  RH WIND       PRES   REMARKS
CHICAGO-OHARE  CLOUDY    62  56  80 N20G25    30.14R
CHICAGO-MIDWAY CLOUDY    62  56  80 N12       30.12R
AURORA         CLOUDY    63  55  75 N15G24    30.15S
LANSING*       RAIN      61  60  97 N8        30.09F
JOLIET*        CLOUDY    62  59  89 N10       30.13R
WAUKEGAN       CLOUDY    60  56  86 N15G25    30.17R
DUPAGE AIRPORT CLOUDY    61  55  81 N18       30.15R
KANKAKEE*      CLOUDY    58  57  94 CALM      30.11R
WHEELING       PTSUNNY   62  55  77 N14G22    30.16R
MORRIS*        CLOUDY    61  57  85 N3        30.12S
ROMEOVILLE*    CLOUDY    60  59  95 N12       30.13R
NORTHERLY ISL    N/A     62  56  80 N18         N/A
$$

LMZ740>746-291400-
SOUTHERN LAKE MICHIGAN

STATION/POSITION SKY/WX   TEMP    WIND        PRES    VSBY  WAVE
                          AIR SEA DIR/SP/G                  HT/PER
                          (F)     (DEG/KT/KT) (MB)    (MI)  (FT/S)
SOUTHERN BUOY              64 69   60/ 25/ 29 1019.7          7/ 7
WILMETTE HARBOR            62 56   50/ 17/ 23   N/A           9/ 7
HARRISON CRIB              65      20/ 23/ 26   N/A
BURNHAM HARBOR             63     360/ 10/ 16   N/A
CALUMET HARBOR             63      10/ 12/ 18 1019.0R
BURNS HARBOR               62      40/ 24/ 26 1019.0S
MICHIGAN CITY              60      20/ 26/ 29   N/A
MICHIGAN CITY 6N           62 65   50/ 21/ 29   N/A           7/ 8
ST. JOSEPH                 60 64   30/ 17/ 23 1019.3R         6/ 6
$$

ILZ025>027-034>036-040-047-049-050-058-095>099-291400-
WEST-CENTRAL ILLINOIS

CITY           SKY/WX    TMP DP  RH WIND       PRES   REMARKS
QUINCY         CLOUDY    53  50  89 N12       30.23R
GALESBURG*     CLOUDY    54  51  89 N15G21    30.22R
MACOMB*        CLOUDY    54  51  92 N13       30.24R
JACKSONVILLE*  CLOUDY    55  51  86 N15       30.17S
PITTSFIELD*    CLOUDY    54  51  90 N12G18    30.21R
$$

ILZ028>032-037-038-041>044-048-051>054-059>061-291400-
CENTRAL ILLINOIS

CITY           SKY/WX    TMP DP  RH WIND       PRES   REMARKS
PONTIAC        RAIN      58  58 100 N9        30.14R
BLOOMINGTON    CLOUDY    57  55  93 N16       30.13R
DECATUR        CLOUDY    60  54  80 N14       30.10R
PEORIA         PTSUNNY   57  54  89 N10G18    30.16S
LACON*         PTSUNNY   58  53  83 N9G21     30.16R
LINCOLN*       HVY RAIN  57  56  95 N9        30.14R
SPRINGFIELD    CLOUDY    57  52  83 N10       30.15R
TAYLORVILLE    CLOUDY    55  52  89 N17       30.12R
$$

ILZ033-039-045-046-055>057-062-063-291400-
EAST-CENTRAL ILLINOIS

CITY           SKY/WX    TMP DP  RH WIND       PRES   REMARKS
CHAMPAIGN      CLOUDY    59  55  87 N13       30.10R
RANTOUL*       CLOUDY    60  57  92 NE9       30.10R
MATTOON        CLOUDY    56  54  93 N7        30.06R
PARIS*         CLOUDY    56  55  99 CALM      30.07R
$$

ILZ079-100>102-291400-
SOUTHWEST ILLINOIS

CITY           SKY/WX    TMP DP  RH WIND       PRES   REMARKS
ALTON          CLOUDY    54  50  87 NW7       30.16R
BELLEVILLE     SUNNY     56  52  87 NW10      30.12R
CAHOKIA*       PTSUNNY   56  49  77 NW12G23   30.16R
SPARTA*        CLOUDY    54  51  90 NW7       30.13S
$$

ILZ064>066-069>071-074>076-080>082-084>086-088>090-092>094-291400-
SOUTH-CENTRAL ILLINOIS

CITY           SKY/WX    TMP DP  RH WIND       PRES   REMARKS
CARBONDALE     CLOUDY    54  52  93 NW10      30.10S
EFFINGHAM*     CLOUDY    56  56  99 N5        30.08S
MARION         CLOUDY    55  52  88 NW12      30.10S
MT. VERNON     CLOUDY    54  48  82 CALM      30.09R
CENTRALIA*     CLOUDY    56  53  92 NW10G17   30.09S
SALEM*         CLOUDY    56  53  90 NW5       30.09R
METROPOLIS*    CLOUDY    55  51  87 CALM      30.10S
$$

ILZ067-068-072-073-078-083-087-091-291400-
SOUTHEAST ILLINOIS

CITY           SKY/WX    TMP DP  RH WIND       PRES   REMARKS
LAWRENCEVILLE  CLOUDY    56  54  93 NW5       30.04R
FLORA*         CLOUDY    58  53  86 NW7       30.07R
FAIRFIELD*       N/A     56  53  87 NW3       30.06R
HARRISBURG*    CLOUDY    55  53  91 NW9       30.08R
ROBINSON*      CLOUDY    55  54  97 N7        30.06R
CARMI*         CLOUDY    54  53  98 W9        30.05S
$$

ABBREVIATIONS USED IN REMARKS
   TC - TEMPERATURE IN CELSIUS
  WCI - WIND CHILL INDEX
   HX - HEAT INDEX
  VSB - VISIBILITY
$$





USA.gov is the U.S. government's official web portal to all federal, state and local government web resources and services.